[[{"header":{"parameterUnit":"m.s-1","parameterCategory":2,"la1":30.2991,"la2":30.254,"lo1":-89.0895,"lo2":-89.0444,"dy":0.0017,"dx":0.0017,"nx":28,"ny":28,"refTime":"2023-05-28T21:00:00:Z","depth":"0","parameterNumber":2,"parameterNumberName":"U-component_of_CURRENTS"},"data":[0,0,0,0,0,0,0,0,0,0,0,0,0,0,0,0,0,0,0,0,0,0,0,0,0,0,0,0,0,0,0,0,0,0,0,0,0,0,0,0,0,0,0,0,0,0,0,0,0,0,0,0,0,0,0,0,0,0,0.3133,0.3134,0,0.3209,0.3209,0.321,0.3256,0.3256,0.3257,0.3257,0.3322,0.3324,0.3325,0,0,0,0,0,0,0,0,0,0,0,0,0,0.3029,0.3031,0.3133,0.3134,0.3135,0.3209,0.3209,0.321,0.3256,0.3256,0.3257,0.3257,0.3322,0.3323,0.3325,0,0,0,0,0,0,0,0,0,0,0,0,0,0.3084,0.3031,0.3132,0.3168,0.3172,0.3208,0.3209,0.3211,0.3256,0.3256,0.3257,0.3258,0.3321,0.3323,0.3325,0.3325,0,0,0.3331,0.3332,0,0,0,0,0,0,0,0,0.3081,0.3088,0.3162,0.3166,0.317,0.3225,0.3197,0.3249,0.3256,0.3222,0.3257,0.3258,0.329,0.3294,0.3304,0.3328,0.3331,0.3332,0.3333,0.3334,0.3334,0,0,0,0,0,0,0,0.3077,0.3085,0.3161,0.3163,0.3168,0.3181,0.319,0.3207,0.325,0.3225,0.3229,0.3241,0.3292,0.3302,0.3306,0.3332,0.3332,0.3333,0.3335,0.3335,0.3347,0.3346,0,0,0,0,0,0,0.3072,0.3081,0.3158,0.3163,0.3129,0.3183,0.3192,0.3205,0.325,0.3258,0.324,0.3242,0.3299,0.3304,0.3309,0.329,0.3334,0.3336,0.3337,0.3347,0.3346,0.3345,0,0,0,0,0,0,0.3069,0.3078,0.3155,0.3125,0.3137,0.3184,0.3199,0.3207,0.3212,0.3262,0.3269,0.3237,0.3299,0.3306,0.3316,0.3293,0.3336,0.3338,0.3349,0.3347,0.3346,0.3265,0,0,0,0,0,0,0.3066,0.3076,0.3076,0.3125,0.3138,0.3156,0.3199,0.3208,0.3219,0.3223,0.3261,0.3269,0.33,0.3313,0.3318,0.3297,0.334,0.335,0.3348,0.3346,0.3269,0.3261,0.3255,0,0,0,0,0,0.3062,0.305,0.3076,0.3085,0.3139,0.3155,0.3161,0.3197,0.3218,0.3206,0.3241,0.3267,0.3306,0.3314,0.332,0.3299,0.3351,0.3348,0.3346,0.3272,0.3263,0.3255,0,0,0,0,0,0,0.2988,0.3055,0.3084,0.309,0.3116,0.3163,0.3156,0.3186,0.3204,0.321,0.3257,0.3266,0.327,0.3293,0.33,0.3297,0.3331,0.333,0.3273,0.3264,0.3257,0.3266,0.3342,0,0,0,0,0,0.2978,0.2992,0.305,0.3047,0.306,0.3108,0.3118,0.3145,0.3174,0.3183,0.3214,0.3244,0.3267,0.3271,0.3297,0.3289,0.3324,0.3279,0.3272,0.3266,0.3277,0.3301,0.3297,0.3339,0.3339,0.3339,0,0,0.2946,0.2984,0.2991,0.3033,0.3057,0.3065,0.3113,0.3121,0.3127,0.3187,0.319,0.3224,0.3262,0.3262,0.3263,0.3275,0.327,0.3263,0.3257,0.3273,0.3298,0.3294,0.3291,0.3337,0.3337,0.3338,0,0,0.2888,0.2924,0.2922,0.2945,0.2985,0.3016,0.3015,0.3061,0.3078,0.3091,0.3139,0.3161,0.3185,0.3214,0.3231,0.3197,0.3238,0.3193,0.3155,0.3176,0.3173,0.3171,0.3201,0.3202,0.318,0.318,0.318,0,0.2843,0.2863,0.2915,0.292,0.2932,0.299,0.2982,0.3006,0.3048,0.3058,0.3079,0.3131,0.3168,0.3176,0.3173,0.3182,0.3202,0.3183,0.3167,0.3166,0.3165,0.3196,0.3199,0.3176,0.3176,0.3177,0.3177,0,0.28,0.2812,0.2802,0.2839,0.2853,0.2849,0.2902,0.2912,0.2945,0.2975,0.2994,0.3048,0.3083,0.3087,0.3126,0.3129,0.3148,0.3161,0.3188,0.3156,0.3191,0.3195,0.317,0.3172,0.3173,0.3174,0,0,0.2701,0.2763,0.2759,0.2769,0.2814,0.2818,0.2826,0.2849,0.2853,0.2892,0.2896,0.2949,0.2989,0.3014,0.3056,0.3076,0.3095,0.3112,0.3115,0.3141,0.3143,0.3138,0.3143,0.3096,0.3096,0.3097,0.3166,0,0.2646,0.2645,0.2692,0.2675,0.2677,0.2734,0.2735,0.2766,0.2798,0.2813,0.287,0.2896,0.2955,0.2975,0.3004,0.3081,0.3103,0.3076,0.3172,0.3176,0.3175,0.3146,0.311,0.3166,0.317,0.3171,0.3171,0,0.2585,0.2601,0.2583,0.2614,0.2618,0.2614,0.2634,0.2649,0.2691,0.2719,0.2757,0.2812,0.287,0.2917,0.3025,0.3001,0.3072,0.3124,0.3128,0.316,0.3179,0.3202,0.3174,0.3051,0.3178,0.3177,0.3177,0,0.2496,0.2516,0.2501,0.2511,0.2555,0.2551,0.2572,0.261,0.2622,0.2668,0.2681,0.275,0.2798,0.2885,0.3025,0.3021,0.3136,0.3142,0.3201,0.3202,0.3212,0.3212,0.308,0.3209,0.3208,0.3208,0.3208,0,0.2423,0.2407,0.2459,0.2453,0.2431,0.2484,0.2467,0.2503,0.254,0.2547,0.2633,0.2659,0.2793,0.2882,0.2996,0.3118,0.3119,0.3199,0.3216,0.3181,0.3178,0.3107,0.3036,0.3211,0.321,0.321,0.3209,0,0.2327,0.2362,0.2348,0.2385,0.239,0.2377,0.2411,0.2406,0.2457,0.2472,0.249,0.2595,0.2724,0.2861,0.3014,0.3083,0.3116,0.3242,0.3198,0.3208,0.3124,0.3051,0.2882,0.2836,0.3299,0.3299,0.33,0,0.228,0.2262,0.2288,0.2282,0.2296,0.2295,0.2294,0.2352,0.2358,0.2438,0.2439,0.2563,0.2657,0.2875,0.3046,0.3225,0.312,0.325,0.3236,0.3106,0.3039,0.2897,0.286,0.322,0.3219,0.3219,0.3218,0,0.2187,0.2195,0.2198,0.2192,0.2187,0.2188,0.2198,0.2192,0.2265,0.2295,0.2361,0.2444,0.2681,0.2838,0.3062,0.3184,0.3075,0.3246,0.312,0.2967,0.2796,0.2765,0.3189,0.3215,0.3215,0.3216,0.3216,0.3216,0.2112,0.2095,0.2105,0.2092,0.209,0.2082,0.2062,0.2092,0.2108,0.2154,0.2265,0.2373,0.2612,0.2941,0.3048,0.3137,0.3072,0.3072,0.3001,0.2873,0.2787,0.3202,0.3237,0.3237,0.3237,0.3238,0.3238,0,0.2014,0.2017,0.2005,0.1994,0.1965,0.1999,0.1994,0.1975,0.1978,0.2064,0.2136,0.235,0.2536,0.2753,0.2948,0.2887,0.2839,0.2786,0.2571,0.2559,0.2952,0.2908,0.2861,0.2861,0.2862,0.2862,0.2862,0.2862,0.1965,0.1931,0.1936,0.1875,0.1868,0.182,0.1808,0.1802,0.1842,0.1902,0.1993,0.211,0.233,0.2475,0.2538,0.2553,0.2378,0.2275,0.2226,0.249,0.251,0.2529,0.2469,0.2331,0.233,0.1813,0.1808,0.1805]},{"header":{"parameterUnit":"m.s-1","parameterCategory":2,"la1":30.2991,"la2":30.254,"lo1":-89.0895,"lo2":-89.0444,"dy":0.0017,"dx":0.0017,"nx":28,"ny":28,"refTime":"2023-05-28T21:00:00:Z","depth":"0","parameterNumber":3,"parameterNumberName":"V-component_of_CURRENTS"},"data":[0,0,0,0,0,0,0,0,0,0,0,0,0,0,0,0,0,0,0,0,0,0,0,0,0,0,0,0,0,0,0,0,0,0,0,0,0,0,0,0,0,0,0,0,0,0,0,0,0,0,0,0,0,0,0,0,0,0,-0.0198,-0.0199,0,-0.0238,-0.0238,-0.0239,-0.0267,-0.0268,-0.0268,-0.0268,-0.0304,-0.0305,-0.0305,0,0,0,0,0,0,0,0,0,0,0,0,0,-0.012,-0.0121,-0.0198,-0.0199,-0.0199,-0.0238,-0.0238,-0.0239,-0.0267,-0.0268,-0.0268,-0.0268,-0.0304,-0.0305,-0.0305,0,0,0,0,0,0,0,0,0,0,0,0,0,-0.0156,-0.0122,-0.0198,-0.0219,-0.0221,-0.0238,-0.0238,-0.0239,-0.0267,-0.0268,-0.0268,-0.0269,-0.0304,-0.0305,-0.0306,-0.0303,0,0,-0.0309,-0.0309,0,0,0,0,0,0,0,0,-0.0154,-0.0158,-0.0215,-0.0217,-0.022,-0.0249,-0.0224,-0.026,-0.0267,-0.0249,-0.0268,-0.0269,-0.0285,-0.0288,-0.0293,-0.0305,-0.0306,-0.0309,-0.0309,-0.031,-0.031,0,0,0,0,0,0,0,-0.0151,-0.0157,-0.0213,-0.0216,-0.0219,-0.0217,-0.0222,-0.0231,-0.0264,-0.0251,-0.0253,-0.0258,-0.0287,-0.0292,-0.0295,-0.0307,-0.0309,-0.031,-0.031,-0.0311,-0.0294,-0.0293,0,0,0,0,0,0,-0.0149,-0.0155,-0.0212,-0.0215,-0.0188,-0.0218,-0.0224,-0.0239,-0.0264,-0.0268,-0.0258,-0.026,-0.029,-0.0293,-0.0296,-0.0265,-0.031,-0.0311,-0.0311,-0.0295,-0.0294,-0.0293,0,0,0,0,0,0,-0.0147,-0.0154,-0.0211,-0.0185,-0.0193,-0.0219,-0.0235,-0.0239,-0.0244,-0.0269,-0.0274,-0.0258,-0.0291,-0.0294,-0.0292,-0.0267,-0.0311,-0.0312,-0.0296,-0.0295,-0.0293,-0.0221,0,0,0,0,0,0,-0.0145,-0.0153,-0.0154,-0.0186,-0.0194,-0.0214,-0.0234,-0.024,-0.0247,-0.025,-0.0271,-0.0275,-0.0292,-0.029,-0.0292,-0.027,-0.0313,-0.0298,-0.0296,-0.0294,-0.0225,-0.0217,-0.0211,0,0,0,0,0,-0.0142,-0.0143,-0.0154,-0.016,-0.0197,-0.0213,-0.0217,-0.0237,-0.0247,-0.0244,-0.0253,-0.0274,-0.0279,-0.029,-0.0293,-0.027,-0.0299,-0.0296,-0.0294,-0.0228,-0.0219,-0.0211,0,0,0,0,0,0,-0.0105,-0.0148,-0.016,-0.0173,-0.0188,-0.0218,-0.0218,-0.0232,-0.0238,-0.0239,-0.0262,-0.0266,-0.0253,-0.0272,-0.0283,-0.0259,-0.0292,-0.029,-0.024,-0.0232,-0.0225,-0.0219,-0.0314,0,0,0,0,0,-0.0098,-0.0114,-0.0146,-0.0154,-0.0163,-0.0188,-0.0195,-0.0209,-0.0223,-0.0227,-0.0241,-0.025,-0.0246,-0.0248,-0.0253,-0.0242,-0.0253,-0.023,-0.0223,-0.0216,-0.0213,-0.021,-0.0203,-0.0285,-0.0285,-0.0285,0,0,-0.0086,-0.011,-0.0118,-0.0147,-0.0163,-0.0162,-0.0193,-0.0203,-0.0192,-0.0229,-0.0215,-0.0226,-0.0237,-0.022,-0.0217,-0.0234,-0.0194,-0.0213,-0.0208,-0.0208,-0.0207,-0.0199,-0.0192,-0.0283,-0.0284,-0.0284,0,0,-0.0068,-0.0091,-0.0097,-0.0107,-0.0129,-0.014,-0.014,-0.0166,-0.0167,-0.016,-0.0174,-0.0169,-0.0177,-0.0172,-0.0172,-0.013,-0.0156,-0.0134,-0.0094,-0.0091,-0.0084,-0.0078,-0.0062,-0.0055,-0.0132,-0.0132,-0.0132,0,-0.0047,-0.0065,-0.0096,-0.0099,-0.0099,-0.0126,-0.0118,-0.0118,-0.0134,-0.0127,-0.0147,-0.0139,-0.0151,-0.0117,-0.0103,-0.0113,-0.0115,-0.0124,-0.0081,-0.0076,-0.0071,-0.0056,-0.005,-0.0128,-0.0128,-0.0129,-0.0129,0,-0.0039,-0.0042,-0.0044,-0.0055,-0.0054,-0.0054,-0.006,-0.0053,-0.006,-0.0063,-0.0042,-0.0057,-0.0055,-0.0052,-0.0065,-0.003,-0.0042,-0.007,-0.0102,-0.0058,-0.0045,-0.004,-0.0123,-0.0124,-0.0125,-0.0126,0,0,-0.0022,-0.0035,-0.0035,-0.0027,-0.0032,-0.0031,-0.0002,0.0012,0.0033,0.0024,0.005,0.0057,0.0039,0.0039,0.0024,0.0027,0.0064,-0.0006,-0.0007,0.0014,0.0083,0.0077,0.0082,0.004,0.0041,0.0042,0.0086,0,-0.0004,0.0002,-0.0005,0.0023,0.003,0.0029,0.0058,0.0073,0.008,0.01,0.0094,0.0109,0.0078,0.0079,0.0082,0.0067,0.0078,0.0056,0.0035,0.0035,0.0026,0.0088,0.0099,0.0139,0.0091,0.0092,0.0093,0,0.0002,0.0008,0.0031,0.0059,0.0063,0.0084,0.0124,0.0145,0.0173,0.0176,0.0188,0.0178,0.0197,0.015,0.0157,0.0143,0.0122,0.0105,0.0106,0.0076,0.0039,0.0084,0.015,0.0087,0.01,0.01,0.0099,0,0.0017,0.0036,0.0057,0.0063,0.0091,0.0114,0.0135,0.0168,0.0194,0.0223,0.0241,0.0251,0.0258,0.0236,0.0207,0.0182,0.0208,0.0165,0.0146,0.0146,0.0139,0.0137,0.0142,0.0169,0.0169,0.0169,0.0169,0,0.0032,0.0052,0.0065,0.0076,0.0119,0.0131,0.018,0.0202,0.0238,0.028,0.0277,0.0314,0.0276,0.0284,0.0243,0.0226,0.0239,0.0172,0.0161,0.0167,0.0166,0.0094,0.0028,0.0171,0.017,0.017,0.017,0,0.0048,0.005,0.0079,0.011,0.0123,0.0153,0.0204,0.024,0.0269,0.0325,0.0336,0.037,0.0388,0.0358,0.0334,0.028,0.0225,0.0241,0.026,0.025,0.0153,0.009,0.0084,0.0075,0.0229,0.0229,0.0229,0,0.0057,0.0067,0.01,0.012,0.0137,0.0179,0.0212,0.025,0.029,0.0365,0.0397,0.0437,0.0484,0.0462,0.0384,0.0335,0.0258,0.0285,0.023,0.0169,0.009,0.0064,0.0055,0.0262,0.0262,0.0262,0.0263,0,0.0081,0.0086,0.0111,0.0145,0.0179,0.0225,0.0275,0.0312,0.0365,0.0426,0.0513,0.0561,0.0551,0.0534,0.0455,0.039,0.0239,0.0288,0.0221,0.0119,0.0095,0.0074,0.0216,0.0266,0.0265,0.0265,0.0265,0.0265,0.0101,0.0122,0.0143,0.018,0.0217,0.0272,0.0321,0.0382,0.0463,0.0577,0.0608,0.0726,0.067,0.0578,0.0463,0.0274,0.026,0.0209,0.0142,0.0127,0.0101,0.0255,0.0285,0.0285,0.0284,0.0284,0.0284,0,0.0127,0.0146,0.0178,0.0224,0.0268,0.0285,0.0365,0.0428,0.0535,0.0668,0.0768,0.0866,0.0751,0.0605,0.0353,0.0178,0.0118,0.0076,0.0038,0.0039,0.0182,0.0164,0.0173,0.0173,0.0173,0.0173,0.0174,0.0174,0.0144,0.0172,0.0187,0.0257,0.0294,0.0371,0.0423,0.0524,0.0638,0.0839,0.0976,0.1069,0.1008,0.0484,0.0133,0.0026,-0.0074,-0.0116,-0.0157,-0.0086,-0.0078,-0.0071,-0.0101,-0.0147,-0.0148,-0.0242,-0.0243,-0.0245]}],[{"header":{"parameterUnit":"m.s-1","parameterCategory":2,"la1":30.2991,"la2":30.254,"lo1":-89.0895,"lo2":-89.0444,"dy":0.0017,"dx":0.0017,"nx":28,"ny":28,"refTime":"2023-05-28T21:00:00:Z","depth":"2","parameterNumber":2,"parameterNumberName":"U-component_of_CURRENTS"},"data":[0,0,0,0,0,0,0,0,0,0,0,0,0,0,0,0,0,0,0,0,0,0,0,0,0,0,0,0,0,0,0,0,0,0,0,0,0,0,0,0,0,0,0,0,0,0,0,0,0,0,0,0,0,0,0,0,0,0,0.0421,0.0421,0,0.0409,0.0408,0.0408,0.0446,0.0447,0.0449,0.045,0.0459,0.0458,0.0457,0,0,0,0,0,0,0,0,0,0,0,0,0,0.0445,0.0444,0.0421,0.0421,0.0421,0.0409,0.0408,0.0408,0.0445,0.0447,0.0449,0.045,0.0459,0.0458,0.0457,0,0,0,0,0,0,0,0,0,0,0,0,0,0.0431,0.0444,0.0421,0.044,0.0442,0.0409,0.0408,0.0408,0.0445,0.0447,0.0449,0.0451,0.046,0.0458,0.0457,0.0406,0,0,0.0452,0.0451,0,0,0,0,0,0,0,0,0.0432,0.043,0.0437,0.0439,0.0441,0.0433,0.042,0.0409,0.0445,0.0441,0.045,0.0452,0.0453,0.0452,0.0441,0.0406,0.0406,0.0452,0.0451,0.045,0.045,0,0,0,0,0,0,0,0.0433,0.0431,0.0414,0.0437,0.044,0.0439,0.0439,0.0418,0.0434,0.0442,0.0445,0.0447,0.0454,0.0442,0.0441,0.0406,0.0452,0.0451,0.045,0.0449,0.0478,0.0479,0,0,0,0,0,0,0.0439,0.0431,0.0414,0.0413,0.0444,0.0437,0.0437,0.0431,0.0434,0.0437,0.0445,0.0449,0.0444,0.0443,0.0442,0.0507,0.045,0.0449,0.0448,0.0476,0.0478,0.048,0,0,0,0,0,0,0.0439,0.0437,0.0415,0.0425,0.0422,0.0435,0.0428,0.043,0.0461,0.0437,0.044,0.0479,0.0445,0.0444,0.0467,0.0503,0.0448,0.0447,0.0474,0.0477,0.0479,0.0557,0,0,0,0,0,0,0.044,0.0437,0.0444,0.0425,0.0422,0.0417,0.0426,0.0428,0.0458,0.0464,0.0466,0.0466,0.0447,0.047,0.0466,0.05,0.0445,0.0472,0.0475,0.0478,0.0552,0.0562,0.057,0,0,0,0,0,0.044,0.043,0.0444,0.0443,0.0428,0.0417,0.0416,0.0429,0.0458,0.0467,0.0485,0.0469,0.0488,0.047,0.0464,0.0499,0.047,0.0474,0.0478,0.0548,0.056,0.057,0,0,0,0,0,0,0.0445,0.0433,0.0447,0.0437,0.0443,0.0425,0.0431,0.045,0.0469,0.0488,0.0478,0.0479,0.0515,0.0495,0.0476,0.0519,0.048,0.0483,0.0536,0.0546,0.0555,0.0556,0.0444,0,0,0,0,0,0.0449,0.044,0.0438,0.0434,0.0439,0.0446,0.045,0.0466,0.0474,0.0486,0.0498,0.051,0.0516,0.0525,0.0521,0.0535,0.0523,0.0559,0.0568,0.0575,0.0574,0.0597,0.0607,0.0492,0.0492,0.0492,0,0,0.0447,0.0442,0.0438,0.0436,0.0439,0.0441,0.0454,0.0469,0.0488,0.0481,0.0523,0.0538,0.0528,0.0552,0.0567,0.0547,0.0604,0.058,0.0587,0.0581,0.0602,0.0613,0.0623,0.0495,0.0494,0.0494,0,0,0.0432,0.0441,0.0431,0.0437,0.0453,0.0456,0.0474,0.0491,0.052,0.0551,0.0564,0.0606,0.0609,0.0617,0.0617,0.0669,0.065,0.0682,0.0726,0.0749,0.0758,0.0766,0.0772,0.078,0.0687,0.0687,0.0687,0,0.0441,0.0426,0.0429,0.0427,0.044,0.0471,0.048,0.0497,0.053,0.0563,0.0578,0.0636,0.0634,0.0668,0.0699,0.0689,0.0697,0.0685,0.076,0.0768,0.0775,0.0779,0.0787,0.0691,0.0691,0.069,0.069,0,0.041,0.0418,0.0414,0.0424,0.0438,0.045,0.0479,0.0521,0.0573,0.06,0.0673,0.0688,0.073,0.0742,0.0736,0.0796,0.0785,0.0769,0.0731,0.0791,0.0792,0.0798,0.0697,0.0696,0.0694,0.0693,0,0,0.0391,0.0393,0.04,0.0417,0.0446,0.0455,0.0498,0.0545,0.0599,0.0651,0.0719,0.0757,0.0805,0.0809,0.0826,0.0849,0.0912,0.0844,0.0843,0.0846,0.0965,0.0964,0.0971,0.0921,0.0922,0.0924,0.0947,0,0.038,0.0377,0.0385,0.041,0.0419,0.0468,0.0506,0.0562,0.0625,0.0698,0.0747,0.0814,0.0817,0.087,0.0895,0.0919,0.0934,0.0907,0.0908,0.0907,0.0898,0.098,0.0838,0.0849,0.0953,0.0954,0.0955,0,0.0357,0.0362,0.0378,0.0424,0.0437,0.0469,0.0562,0.0601,0.0696,0.0754,0.0835,0.088,0.0954,0.094,0.1,0.0993,0.0986,0.0984,0.0984,0.0959,0.092,0.0805,0.0856,0.0966,0.0965,0.0964,0.0963,0,0.0346,0.0366,0.0387,0.0398,0.0448,0.0496,0.0545,0.0637,0.0694,0.0812,0.0878,0.0955,0.1029,0.1038,0.1071,0.1047,0.1116,0.1071,0.1048,0.1047,0.0911,0.0896,0.1084,0.1084,0.1084,0.1084,0.1084,0,0.0326,0.0351,0.0395,0.0407,0.0468,0.051,0.0601,0.0665,0.0766,0.0841,0.0925,0.1002,0.1064,0.1117,0.11,0.1125,0.1145,0.1073,0.1066,0.0936,0.0923,0.1004,0.0995,0.1084,0.1084,0.1084,0.1084,0,0.0312,0.0332,0.0365,0.0429,0.0464,0.0518,0.0631,0.0687,0.0796,0.0898,0.0946,0.1069,0.1167,0.12,0.1234,0.1183,0.118,0.1164,0.1012,0.0987,0.1075,0.1069,0.1136,0.1136,0.1137,0.1137,0.1137,0,0.0299,0.0311,0.0385,0.0419,0.046,0.0546,0.0603,0.0705,0.076,0.093,0.0967,0.1119,0.1205,0.1275,0.1221,0.1199,0.1233,0.1048,0.0968,0.1101,0.1087,0.108,0.1074,0.0809,0.0807,0.0805,0.0803,0,0.0277,0.0316,0.034,0.0408,0.0473,0.0537,0.0626,0.0669,0.0787,0.0878,0.1005,0.1096,0.1189,0.1153,0.1156,0.1096,0.1047,0.1008,0.1198,0.0834,0.08,0.0783,0.0787,0.0786,0.0787,0.0789,0.079,0.079,0.0274,0.0288,0.0326,0.0395,0.0459,0.052,0.0576,0.0648,0.0733,0.087,0.0954,0.1053,0.0981,0.0954,0.094,0.0939,0.0961,0.0869,0.0872,0.0877,0.0851,0.0822,0.0805,0.0807,0.0809,0.081,0.0811,0,0.0259,0.0279,0.0314,0.0373,0.0416,0.0497,0.0578,0.0618,0.0703,0.0814,0.0924,0.0755,0.0754,0.0796,0.0747,0.0703,0.0656,0.0704,0.0626,0.064,0.0654,0.0616,0.0508,0.0508,0.0509,0.0509,0,0,0.0243,0.0252,0.0261,0.0313,0.0389,0.0481,0.0545,0.0607,0.0672,0.0692,0.0732,0.0751,0.0728,0.0586,0.0535,0.0581,0.0627,0.0555,0.0776,0.07,0.0715,0.0702,0.0654,0,0,0,0,0]},{"header":{"parameterUnit":"m.s-1","parameterCategory":2,"la1":30.2991,"la2":30.254,"lo1":-89.0895,"lo2":-89.0444,"dy":0.0017,"dx":0.0017,"nx":28,"ny":28,"refTime":"2023-05-28T21:00:00:Z","depth":"2","parameterNumber":3,"parameterNumberName":"V-component_of_CURRENTS"},"data":[0,0,0,0,0,0,0,0,0,0,0,0,0,0,0,0,0,0,0,0,0,0,0,0,0,0,0,0,0,0,0,0,0,0,0,0,0,0,0,0,0,0,0,0,0,0,0,0,0,0,0,0,0,0,0,0,0,0,0.003,0.003,0,-0.0013,-0.0014,-0.0014,-0.0064,-0.0064,-0.0065,-0.0066,-0.018,-0.0183,-0.0185,0,0,0,0,0,0,0,0,0,0,0,0,0,0.0049,0.0049,0.003,0.003,0.0029,-0.0013,-0.0014,-0.0014,-0.0064,-0.0064,-0.0065,-0.0066,-0.0179,-0.0182,-0.0185,0,0,0,0,0,0,0,0,0,0,0,0,0,0.0026,0.0049,0.003,-0.0,-0.0003,-0.0013,-0.0014,-0.0014,-0.0063,-0.0064,-0.0065,-0.0066,-0.0178,-0.0182,-0.0186,-0.0187,0,0,-0.0197,-0.0198,0,0,0,0,0,0,0,0,0.0028,0.0025,0.0005,0.0002,-0.0002,-0.0034,-0.0049,-0.0075,-0.0063,-0.0041,-0.0066,-0.0067,-0.0137,-0.0144,-0.0149,-0.0192,-0.0197,-0.0197,-0.0199,-0.0201,-0.0202,0,0,0,0,0,0,0,0.0029,0.0027,0.0013,0.0004,0.0001,-0.0019,-0.0023,-0.0054,-0.0084,-0.0043,-0.0047,-0.005,-0.0139,-0.0146,-0.0153,-0.0199,-0.0197,-0.02,-0.0202,-0.0204,-0.0337,-0.0339,0,0,0,0,0,0,0.0038,0.0029,0.0014,0.0011,0.0011,-0.0018,-0.0023,-0.0023,-0.0083,-0.0092,-0.0049,-0.0052,-0.0139,-0.0148,-0.0157,-0.0211,-0.0201,-0.0204,-0.0206,-0.0336,-0.0337,-0.0339,0,0,0,0,0,0,0.0039,0.0037,0.0016,0.0019,0.0015,-0.0017,-0.0017,-0.0023,-0.0052,-0.0086,-0.0097,-0.0074,-0.014,-0.0152,-0.0206,-0.0214,-0.0206,-0.0209,-0.0334,-0.0336,-0.0338,-0.0289,0,0,0,0,0,0,0.0039,0.0038,0.003,0.002,0.0015,0.0001,-0.0016,-0.0023,-0.0051,-0.0056,-0.0111,-0.0121,-0.0142,-0.02,-0.0209,-0.0219,-0.0212,-0.0332,-0.0335,-0.0338,-0.0289,-0.0289,-0.0289,0,0,0,0,0,0.004,0.004,0.003,0.0028,0.001,0.0001,-0.0004,-0.0031,-0.0051,-0.0062,-0.0106,-0.0121,-0.0224,-0.0204,-0.0214,-0.0225,-0.0331,-0.0334,-0.0337,-0.0288,-0.0289,-0.0289,0,0,0,0,0,0,0.0037,0.0034,0.0024,0.002,0.0006,-0.0008,-0.0022,-0.004,-0.0081,-0.0096,-0.0133,-0.0146,-0.0199,-0.0226,-0.0203,-0.0276,-0.0282,-0.0288,-0.0242,-0.0242,-0.0243,-0.0208,-0.0215,0,0,0,0,0,0.0036,0.0036,0.0027,0.002,0.0014,-0.0008,-0.0021,-0.0037,-0.0068,-0.0088,-0.0125,-0.0174,-0.0215,-0.024,-0.0281,-0.0315,-0.033,-0.0334,-0.0334,-0.0334,-0.0316,-0.0358,-0.036,-0.0349,-0.0349,-0.0349,0,0,0.0033,0.003,0.0029,0.0019,0.0005,0.0004,-0.0019,-0.0039,-0.0046,-0.0094,-0.013,-0.0178,-0.0228,-0.0267,-0.0293,-0.0292,-0.0346,-0.0338,-0.0337,-0.0319,-0.0362,-0.0362,-0.0363,-0.0351,-0.0351,-0.0351,0,0,0.0037,0.0023,0.0028,0.0021,0.0003,-0.0004,-0.0013,-0.0037,-0.0058,-0.0093,-0.0135,-0.0186,-0.0246,-0.0277,-0.0301,-0.033,-0.0349,-0.0356,-0.032,-0.0362,-0.0362,-0.0362,-0.0374,-0.0375,-0.0351,-0.0351,-0.0351,0,0.0027,0.0038,0.0025,0.0028,0.0025,-0.0007,-0.0003,-0.0021,-0.0063,-0.0076,-0.0104,-0.0196,-0.0244,-0.028,-0.0293,-0.0326,-0.0344,-0.0308,-0.0358,-0.0359,-0.036,-0.0372,-0.0374,-0.0349,-0.0349,-0.0349,-0.0349,0,0.0045,0.0045,0.0044,0.0046,0.004,0.0033,0.0018,-0.0002,-0.0034,-0.0052,-0.0106,-0.017,-0.0219,-0.0252,-0.0278,-0.0314,-0.0322,-0.0353,-0.0344,-0.0357,-0.037,-0.0373,-0.0346,-0.0346,-0.0347,-0.0348,0,0,0.0034,0.0055,0.0049,0.0059,0.0047,0.0047,0.0039,0.0028,0.0023,-0.0031,-0.0041,-0.0123,-0.0158,-0.0189,-0.0239,-0.0274,-0.0303,-0.0309,-0.0313,-0.0297,-0.0372,-0.0321,-0.032,-0.0343,-0.0344,-0.0344,-0.0373,0,0.0044,0.0066,0.0073,0.0085,0.0094,0.0079,0.008,0.0064,0.0038,0.0019,-0.0044,-0.0084,-0.0133,-0.0164,-0.0204,-0.0282,-0.0311,-0.029,-0.0383,-0.0384,-0.0318,-0.0322,-0.03,-0.032,-0.0377,-0.0377,-0.0378,0,0.0049,0.0069,0.0086,0.0115,0.0117,0.0116,0.0116,0.0115,0.0089,0.007,0.0031,-0.0016,-0.0071,-0.0121,-0.0225,-0.021,-0.028,-0.0338,-0.0341,-0.0307,-0.0339,-0.0323,-0.0324,-0.0383,-0.0383,-0.0383,-0.0382,0,0.0043,0.0074,0.009,0.0095,0.0121,0.012,0.0127,0.0116,0.0119,0.0095,0.0092,0.0028,-0.0014,-0.0105,-0.021,-0.0226,-0.0317,-0.036,-0.0374,-0.0371,-0.0375,-0.037,-0.0432,-0.0432,-0.0432,-0.0432,-0.0432,0,0.0051,0.0059,0.0085,0.0091,0.011,0.0124,0.0134,0.0134,0.0138,0.015,0.011,0.0109,-0.0016,-0.0078,-0.0181,-0.0266,-0.0296,-0.0351,-0.0374,-0.0357,-0.0351,-0.0429,-0.0429,-0.0433,-0.0433,-0.0432,-0.0432,0,0.0036,0.0052,0.007,0.0098,0.0102,0.0108,0.0137,0.0155,0.016,0.0175,0.0171,0.0154,0.0092,-0.0015,-0.0155,-0.0221,-0.0319,-0.0348,-0.0295,-0.0309,-0.0351,-0.0348,-0.0359,-0.0357,-0.0356,-0.0355,-0.0354,0,0.0038,0.0043,0.006,0.007,0.0077,0.0095,0.0113,0.0142,0.0171,0.0208,0.0223,0.0191,0.0204,0.0064,-0.0066,-0.0193,-0.0275,-0.0277,-0.0304,-0.0322,-0.0343,-0.0342,-0.0341,-0.0298,-0.0297,-0.0296,-0.0295,0,0.0046,0.0032,0.0053,0.0068,0.0081,0.0118,0.0151,0.0184,0.0231,0.0278,0.0344,0.0369,0.0273,0.0171,0.0011,-0.0077,-0.0248,-0.0256,-0.0311,-0.0304,-0.0263,-0.0284,-0.0286,-0.0286,-0.0286,-0.0287,-0.0288,-0.0288,0.0041,0.0052,0.0068,0.0082,0.0103,0.0154,0.0197,0.0268,0.0352,0.046,0.0464,0.0503,0.0294,0.0138,0.0007,-0.0118,-0.0131,-0.0232,-0.0237,-0.0243,-0.0214,-0.0172,-0.0171,-0.0171,-0.0171,-0.0171,-0.0172,0,0.0059,0.007,0.0092,0.0128,0.0164,0.0154,0.0238,0.0319,0.0445,0.0533,0.0632,0.0457,0.0361,0.0153,-0.0001,-0.011,-0.0126,-0.0168,-0.0205,-0.0212,-0.0219,-0.0192,-0.0142,-0.0142,-0.0142,-0.0142,0,0,0.0078,0.0104,0.012,0.0182,0.0192,0.0253,0.0299,0.0435,0.0523,0.064,0.0646,0.0643,0.0357,0.0191,0.0031,-0.004,-0.0084,-0.0038,-0.0048,-0.0076,-0.0081,-0.024,-0.0203,0,0,0,0,0]}],[{"header":{"parameterUnit":"m.s-1","parameterCategory":2,"la1":30.2991,"la2":30.254,"lo1":-89.0895,"lo2":-89.0444,"dy":0.0017,"dx":0.0017,"nx":28,"ny":28,"refTime":"2023-05-28T21:00:00:Z","depth":"4","parameterNumber":2,"parameterNumberName":"U-component_of_CURRENTS"},"data":[0,0,0,0,0,0,0,0,0,0,0,0,0,0,0,0,0,0,0,0,0,0,0,0,0,0,0,0,0,0,0,0,0,0,0,0,0,0,0,0,0,0,0,0,0,0,0,0,0,0,0,0,0,0,0,0,0,0,-0.0346,-0.0346,0,-0.0357,-0.0357,-0.0357,-0.0356,-0.0356,-0.0356,-0.0356,-0.0341,-0.034,-0.034,0,0,0,0,0,0,0,0,0,0,0,0,0,-0.0311,-0.0311,-0.0346,-0.0346,-0.0346,-0.0357,-0.0357,-0.0357,-0.0356,-0.0356,-0.0356,-0.0356,-0.0341,-0.034,-0.034,0,0,0,0,0,0,0,0,0,0,0,0,0,-0.0323,-0.0311,-0.0346,-0.0348,-0.0349,-0.0357,-0.0357,-0.0357,-0.0356,-0.0356,-0.0356,-0.0356,-0.0341,-0.034,-0.034,-0.0337,0,0,-0.0338,-0.0338,0,0,0,0,0,0,0,0,-0.0322,-0.0324,-0.0348,-0.0348,-0.0349,-0.0357,-0.0339,-0.035,-0.0356,-0.0352,-0.0356,-0.0356,-0.0345,-0.0344,-0.0344,-0.0337,-0.0336,-0.0338,-0.0338,-0.0337,-0.0337,0,0,0,0,0,0,0,-0.0321,-0.0323,-0.0349,-0.0348,-0.0349,-0.0345,-0.0346,-0.0341,-0.0346,-0.0352,-0.0352,-0.0356,-0.0345,-0.0345,-0.0344,-0.0336,-0.0338,-0.0338,-0.0337,-0.0337,-0.0348,-0.0348,0,0,0,0,0,0,-0.0324,-0.0323,-0.0348,-0.0349,-0.0337,-0.0346,-0.0347,-0.0353,-0.0347,-0.0347,-0.0356,-0.0356,-0.0346,-0.0344,-0.0343,-0.0375,-0.0337,-0.0337,-0.0337,-0.0347,-0.0348,-0.0348,0,0,0,0,0,0,-0.0323,-0.0326,-0.0348,-0.0337,-0.034,-0.0347,-0.0353,-0.0353,-0.0358,-0.0351,-0.035,-0.0361,-0.0346,-0.0344,-0.0346,-0.0373,-0.0337,-0.0336,-0.0346,-0.0347,-0.0348,-0.0415,0,0,0,0,0,0,-0.0322,-0.0326,-0.0333,-0.0338,-0.0341,-0.036,-0.0353,-0.0353,-0.0361,-0.0361,-0.0355,-0.0353,-0.0345,-0.0347,-0.0345,-0.0371,-0.0336,-0.0345,-0.0347,-0.0348,-0.0412,-0.0419,-0.0424,0,0,0,0,0,-0.0321,-0.0331,-0.0334,-0.0337,-0.035,-0.036,-0.0361,-0.0364,-0.0361,-0.0367,-0.0363,-0.0354,-0.0353,-0.0347,-0.0345,-0.0371,-0.0345,-0.0346,-0.0348,-0.041,-0.0417,-0.0424,0,0,0,0,0,0,-0.0323,-0.0333,-0.0335,-0.0349,-0.0357,-0.0361,-0.0368,-0.0368,-0.037,-0.037,-0.0359,-0.0357,-0.0366,-0.0356,-0.035,-0.0376,-0.0348,-0.035,-0.0397,-0.0403,-0.0409,-0.0431,-0.0335,0,0,0,0,0,-0.0327,-0.0337,-0.0344,-0.0358,-0.0361,-0.0365,-0.037,-0.0373,-0.0374,-0.0375,-0.0372,-0.0369,-0.037,-0.0377,-0.0368,-0.0386,-0.0379,-0.0401,-0.0407,-0.0412,-0.0427,-0.046,-0.0471,-0.0353,-0.0353,-0.0353,0,0,-0.0333,-0.0339,-0.0346,-0.0359,-0.0364,-0.0375,-0.0368,-0.0379,-0.039,-0.0373,-0.0386,-0.0382,-0.0374,-0.0392,-0.0397,-0.0391,-0.0433,-0.0413,-0.0418,-0.0431,-0.0463,-0.0475,-0.0485,-0.0354,-0.0354,-0.0354,0,0,-0.0345,-0.0354,-0.0363,-0.0371,-0.0382,-0.0387,-0.0391,-0.0399,-0.0404,-0.0414,-0.0408,-0.0425,-0.0418,-0.0433,-0.0436,-0.0467,-0.0454,-0.0463,-0.0524,-0.0556,-0.0567,-0.0576,-0.0549,-0.0556,-0.0478,-0.0478,-0.0478,0,-0.0351,-0.0362,-0.0368,-0.0378,-0.0388,-0.0393,-0.0405,-0.0414,-0.0423,-0.0432,-0.0423,-0.0449,-0.044,-0.0484,-0.05,-0.0483,-0.0482,-0.0501,-0.0566,-0.0575,-0.0584,-0.0554,-0.0561,-0.0481,-0.0481,-0.0481,-0.048,0,-0.0366,-0.0377,-0.0384,-0.0398,-0.0411,-0.0423,-0.0437,-0.0451,-0.0456,-0.0465,-0.05,-0.0509,-0.0533,-0.0535,-0.0529,-0.0594,-0.0564,-0.0562,-0.0554,-0.06,-0.0565,-0.0571,-0.0486,-0.0485,-0.0484,-0.0483,0,0,-0.0367,-0.0388,-0.039,-0.0397,-0.0422,-0.043,-0.0459,-0.0481,-0.0499,-0.0526,-0.0566,-0.0591,-0.0613,-0.062,-0.0632,-0.0671,-0.0715,-0.0656,-0.0656,-0.0638,-0.0754,-0.0637,-0.0631,-0.0738,-0.0741,-0.0742,-0.0693,0,-0.0373,-0.0388,-0.0404,-0.0425,-0.0432,-0.0455,-0.048,-0.0505,-0.0524,-0.0564,-0.0605,-0.0641,-0.0642,-0.0674,-0.0717,-0.0711,-0.0739,-0.0726,-0.0705,-0.0703,-0.0602,-0.0637,-0.0749,-0.0697,-0.0698,-0.0699,-0.07,0,-0.0374,-0.0384,-0.04,-0.0429,-0.0436,-0.0455,-0.0495,-0.0525,-0.0581,-0.0606,-0.0673,-0.0697,-0.0769,-0.0766,-0.0806,-0.0803,-0.0793,-0.0786,-0.0784,-0.0661,-0.0598,-0.0648,-0.0709,-0.0709,-0.0708,-0.0707,-0.0707,0,-0.0352,-0.0379,-0.0389,-0.0399,-0.0435,-0.0454,-0.0486,-0.0533,-0.0567,-0.0653,-0.0686,-0.0764,-0.0805,-0.0836,-0.0819,-0.0827,-0.0839,-0.0837,-0.0717,-0.0706,-0.0797,-0.0788,-0.0877,-0.0877,-0.0877,-0.0877,-0.0877,0,-0.0342,-0.0351,-0.0378,-0.0381,-0.0402,-0.0444,-0.0484,-0.0525,-0.0604,-0.0634,-0.0721,-0.0742,-0.0833,-0.0841,-0.0835,-0.0774,-0.0847,-0.073,-0.0701,-0.0818,-0.0812,-0.0798,-0.0789,-0.0875,-0.0876,-0.0876,-0.0876,0,-0.0314,-0.0331,-0.0341,-0.0375,-0.0388,-0.0408,-0.0484,-0.051,-0.0593,-0.0645,-0.0683,-0.0745,-0.073,-0.0771,-0.0786,-0.0761,-0.0733,-0.0694,-0.0779,-0.0754,-0.0571,-0.0566,-0.056,-0.0556,-0.0552,-0.0549,-0.0547,0,-0.0303,-0.0301,-0.0324,-0.033,-0.0346,-0.0388,-0.0411,-0.0498,-0.0519,-0.0602,-0.0603,-0.0637,-0.0657,-0.0578,-0.0625,-0.0606,-0.0602,-0.0593,-0.0631,-0.0574,-0.0546,-0.0547,-0.0548,-0.0541,-0.054,-0.0539,-0.0538,0,-0.0279,-0.0282,-0.029,-0.0299,-0.0314,-0.0333,-0.0367,-0.0378,-0.0459,-0.054,-0.0508,-0.0515,-0.0483,-0.0481,-0.048,-0.0466,-0.0612,-0.0557,-0.0565,-0.0599,-0.0551,-0.0527,-0.0532,-0.0526,-0.0528,-0.0529,-0.053,0,-0.0262,-0.0257,-0.0263,-0.0271,-0.0279,-0.0262,-0.029,-0.0293,-0.0329,-0.0413,-0.0372,-0.0399,-0.044,-0.04,-0.0382,-0.0378,-0.0375,-0.0386,-0.0404,-0.0418,-0.0398,-0.0318,-0.0201,0,0,0,0,0,-0.0242,-0.0236,-0.024,-0.0227,-0.0228,-0.0235,-0.0251,-0.0277,-0.0331,-0.0285,-0.0341,-0.03,-0.0285,-0.0281,-0.0247,-0.0313,-0.0381,-0.0272,-0.0405,-0.0457,-0.0472,-0.0464,0,0,0,0,0,0,-0.0231,-0.023,-0.023,-0.0191,-0.0174,-0.0165,-0.0169,-0.0201,-0.017,-0.023,-0.0205,-0.0269,-0.0241,-0.0298,-0.0238,-0.0242,-0.0314,-0.0293,-0.0291,-0.0449,-0.0462,-0.0474,-0.0471,0,0,0,0,0]},{"header":{"parameterUnit":"m.s-1","parameterCategory":2,"la1":30.2991,"la2":30.254,"lo1":-89.0895,"lo2":-89.0444,"dy":0.0017,"dx":0.0017,"nx":28,"ny":28,"refTime":"2023-05-28T21:00:00:Z","depth":"4","parameterNumber":3,"parameterNumberName":"V-component_of_CURRENTS"},"data":[0,0,0,0,0,0,0,0,0,0,0,0,0,0,0,0,0,0,0,0,0,0,0,0,0,0,0,0,0,0,0,0,0,0,0,0,0,0,0,0,0,0,0,0,0,0,0,0,0,0,0,0,0,0,0,0,0,0,0.0319,0.0319,0,0.0335,0.0335,0.0335,0.0347,0.0347,0.0347,0.0347,0.0354,0.0354,0.0354,0,0,0,0,0,0,0,0,0,0,0,0,0,0.0302,0.0303,0.0319,0.0319,0.0319,0.0335,0.0335,0.0335,0.0347,0.0347,0.0347,0.0347,0.0354,0.0354,0.0354,0,0,0,0,0,0,0,0,0,0,0,0,0,0.0313,0.0303,0.0319,0.0327,0.0328,0.0334,0.0335,0.0335,0.0347,0.0347,0.0347,0.0347,0.0354,0.0354,0.0354,0.0351,0,0,0.0355,0.0355,0,0,0,0,0,0,0,0,0.0312,0.0313,0.0326,0.0327,0.0328,0.0339,0.0332,0.034,0.0346,0.0339,0.0347,0.0347,0.0348,0.0349,0.0351,0.0351,0.0351,0.0355,0.0355,0.0355,0.0355,0,0,0,0,0,0,0,0.0311,0.0313,0.0325,0.0326,0.0327,0.0331,0.0333,0.0333,0.0342,0.034,0.0341,0.0343,0.0349,0.0351,0.0351,0.0352,0.0355,0.0355,0.0355,0.0355,0.0341,0.0341,0,0,0,0,0,0,0.031,0.0312,0.0324,0.0325,0.0321,0.0332,0.0333,0.0335,0.0342,0.0344,0.0343,0.0344,0.0351,0.0351,0.0352,0.0336,0.0355,0.0355,0.0355,0.0341,0.0341,0.034,0,0,0,0,0,0,0.0309,0.0311,0.0324,0.0319,0.0321,0.0332,0.0333,0.0335,0.034,0.0345,0.0346,0.0346,0.0351,0.0352,0.0348,0.0336,0.0355,0.0355,0.0342,0.0341,0.0341,0.0311,0,0,0,0,0,0,0.0309,0.031,0.0315,0.0319,0.0321,0.0325,0.0333,0.0335,0.0341,0.0342,0.0348,0.0349,0.0351,0.0348,0.0348,0.0337,0.0355,0.0342,0.0342,0.0341,0.0313,0.031,0.0307,0,0,0,0,0,0.0308,0.0308,0.0315,0.0317,0.0326,0.0325,0.0326,0.0334,0.0341,0.034,0.0342,0.0349,0.0343,0.0347,0.0348,0.0337,0.0343,0.0342,0.0341,0.0314,0.031,0.0307,0,0,0,0,0,0,0.0298,0.0309,0.0317,0.032,0.0323,0.0327,0.0328,0.0334,0.0336,0.0337,0.0344,0.0344,0.0336,0.0342,0.0346,0.033,0.0344,0.0343,0.0323,0.032,0.0317,0.0306,0.0355,0,0,0,0,0,0.03,0.0304,0.0313,0.0313,0.0315,0.0323,0.0326,0.0329,0.0331,0.0332,0.0336,0.0337,0.0332,0.0331,0.033,0.0322,0.0328,0.0315,0.0312,0.0309,0.0301,0.031,0.0307,0.0337,0.0337,0.0337,0,0,0.0293,0.0302,0.0303,0.0312,0.0315,0.0304,0.0325,0.0324,0.031,0.0332,0.0318,0.0328,0.0329,0.0317,0.0315,0.032,0.0303,0.0308,0.0306,0.0299,0.0308,0.0306,0.0303,0.0337,0.0337,0.0337,0,0,0.0274,0.0292,0.0286,0.0286,0.0292,0.0295,0.0294,0.0299,0.03,0.0291,0.0301,0.0301,0.03,0.0294,0.0291,0.0271,0.0289,0.0278,0.0253,0.0261,0.0259,0.0257,0.0254,0.0252,0.0275,0.0275,0.0275,0,0.0267,0.026,0.0283,0.0271,0.0263,0.0287,0.0265,0.0268,0.027,0.0261,0.0281,0.0273,0.0282,0.0256,0.0257,0.0263,0.0274,0.0265,0.0257,0.0255,0.0254,0.0252,0.025,0.0273,0.0274,0.0274,0.0274,0,0.0239,0.0232,0.0226,0.0219,0.0213,0.0201,0.0204,0.02,0.021,0.021,0.0198,0.0217,0.0214,0.0218,0.0235,0.0223,0.0237,0.0255,0.0266,0.0249,0.0248,0.0247,0.0271,0.0272,0.0272,0.0273,0,0,0.0223,0.0209,0.0206,0.0188,0.0184,0.0172,0.015,0.0132,0.0111,0.013,0.0103,0.0116,0.0145,0.0144,0.0168,0.0179,0.0185,0.0218,0.0219,0.0214,0.0203,0.0152,0.0146,0.0212,0.0212,0.0212,0.0204,0,0.0192,0.0158,0.0157,0.0114,0.0093,0.0096,0.0069,0.0057,0.0058,0.0044,0.0066,0.0066,0.0111,0.0125,0.0139,0.0178,0.0181,0.0185,0.022,0.0221,0.0177,0.0143,0.0211,0.0203,0.0203,0.0203,0.0203,0,0.0166,0.0144,0.01,0.0056,0.0046,0.0024,-0.0015,-0.0033,-0.0046,-0.0041,-0.0032,-0.0003,0.0018,0.0067,0.011,0.0118,0.0156,0.0183,0.0184,0.0145,0.0167,0.0225,0.02,0.0201,0.0201,0.0201,0.0201,0,0.0148,0.0102,0.0066,0.0052,0.001,-0.0015,-0.0033,-0.0058,-0.0077,-0.0077,-0.008,-0.0057,-0.0028,0.0019,0.0092,0.0112,0.0134,0.0164,0.0142,0.0139,0.0202,0.0205,0.018,0.018,0.018,0.018,0.018,0,0.0119,0.0086,0.0056,0.0035,-0.0019,-0.0036,-0.0086,-0.0098,-0.0119,-0.0147,-0.0106,-0.0119,-0.003,-0.0002,0.0061,0.0089,0.0111,0.012,0.0127,0.0189,0.019,0.0201,0.0204,0.018,0.018,0.018,0.018,0,0.0102,0.0087,0.0039,-0.0009,-0.0025,-0.0058,-0.0107,-0.0143,-0.0145,-0.0177,-0.0167,-0.0151,-0.0119,-0.0057,0.001,0.0043,0.0079,0.0083,0.0125,0.0139,0.0085,0.0086,0.0047,0.0045,0.0044,0.0042,0.0041,0,0.0086,0.0065,0.0015,-0.0012,-0.0034,-0.0082,-0.0119,-0.0146,-0.0175,-0.0205,-0.0221,-0.0205,-0.0187,-0.0132,-0.0075,-0.0002,0.0018,0.0037,0.0072,0.0057,0.0069,0.0073,0.0076,0.0039,0.0038,0.0038,0.0037,0,0.0047,0.0042,0.0004,-0.0036,-0.0076,-0.0135,-0.018,-0.0198,-0.0229,-0.0238,-0.025,-0.0229,-0.0221,-0.0164,-0.0112,-0.0055,0.0025,0.002,0.0025,0.0058,0.0046,0.006,0.0065,0.0031,0.0032,0.0033,0.0033,0,0.002,-0.0007,-0.0035,-0.0069,-0.0113,-0.0162,-0.0194,-0.0228,-0.0252,-0.0262,-0.0279,-0.0256,-0.024,-0.0197,-0.0156,-0.0107,-0.0088,-0.0046,-0.0037,-0.003,-0.0051,-0.0077,-0.014,0,0,0,0,0,-0.0011,-0.0033,-0.007,-0.0114,-0.0147,-0.0165,-0.0225,-0.0252,-0.0274,-0.0276,-0.0268,-0.0256,-0.0218,-0.0215,-0.0174,-0.0199,-0.0091,-0.0152,-0.0039,-0.0001,0.0006,-0.001,0,0,0,0,0,0,-0.004,-0.007,-0.0075,-0.0121,-0.0142,-0.0198,-0.0225,-0.0252,-0.025,-0.0257,-0.0232,-0.0234,-0.0194,-0.0217,-0.0161,-0.0157,-0.008,-0.0138,-0.0137,-0.0005,0.0001,0.0007,-0.0007,0,0,0,0,0]}]]